BLITS

Satellite information

Favourite Embed

Satellite Type and Status

PAYLOADIN ORBIT

Key statistics

Satellite BLITS at a glance.

Uptime

5771

Days in orbit

Revolutions

≈ 14.2

Per day

Orbit

SSO

Sun Synchronous Orbit

Inclination

98.7

Latest

Satellite identification and parameters

Extended collection of information and parameters for BLITS.

Object identification

Identified? True

Debris? False

Object name: BLITS

International designator: 2009-049G

Object number (NORAD): 35871

Object ID (CCSDS): 35871

Country: COMMONWEALTH OF INDEPENDENT STATES (CIS)

Current information (Y/N): Y

RCS size: SMALL

Orbital parameters

Period: 101.257 minutes

Inclination: 98.7135 deg

SMA: 7196.313 km

Apoapsis: 819.907 km

Periapsis: 816.45 km

RAAN: 146.5282 deg

Eccentricy: 0.0002402

Argument of periapsis: 235.2379 deg

Mean anomaly: 124.8573 deg

Mean motion: 14.22124727 rev/day

Mean motion (dot): 0.00000005 rev/day2

B* drag term: 0.000022094 1/REarth

Two-line elements (TLE)

Creation date: July 5, 2025, 5:45 p.m.

Reference frame: TEME

Reference center: EARTH

Epoch: July 5, 2025, 2:27 a.m. UTC

TLE line 0: 0 BLITS

TLE line 1: 1 35871U 09049G 25186.10269377 .00000005 00000-0 22094-4 0 9999

TLE line 2: 2 35871 98.7135 146.5282 0002402 235.2379 124.8573 14.22124727819141

Live tracking on map

Real-time ground track for satellite BLITS.

In-orbit conjunctions

A list of the most updated potential collisions computed for object BLITS.

Target Orbit TCA Probability of collision Miss distance Type
CZ-4 DEB SSO 2025-06-12 13:41:24 0.0001783481 537.0 (m) DEBRIS
METEOR 1-17 DEB LEO 2025-06-10 17:48:07 0.000145401 329.0 (m) DEBRIS
NOAA 16 DEB SSO 2025-02-14 05:26:02 0.0002613452 270.0 (m) DEBRIS
CZ-6A DEB LEO 2024-10-23 09:17:38 0.0001481581 534.0 (m) DEBRIS
CZ-6A DEB SSO 2024-10-01 01:06:32 0.0001020313 593.0 (m) DEBRIS

Associated space launch

Russian meteorology satellite

BLITS was lifted into orbit during the mission ‘Soyuz 2.1b/Fregat | Meteor-M 1’, on board a Soyuz 2.1b/Fregat space rocket.

The launch took place on Sept. 17, 2009, 3:55 p.m. from 31/6.

For more information about the launch, click the button.

Launch to space Soyuz 2.1b/Fregat | Meteor-M 1
Soyuz 2.1b/Fregat | Meteor-M 1

Agency: N/A

Status: Launch Successful

Launch date: Sept. 17, 2009, 3:55 p.m. UTC

Rocket: Soyuz 2.1b/Fregat

Launch pad: 31/6

Location: Baikonur Cosmodrome, Republic of Kazakhstan

...

Latest news about this satellite

There are no fresh news available about this satellite. Check back as we update our databases every day.


Newsletter sign-up

Weekly statistics, charts and insights to help you stay on top of the space industry.